Time,TemperatureF,DewpointF,PressureIn,WindDirection,WindDirectionDegrees,WindSpeedMPH,WindSpeedGustMPH,Humidity,HourlyPrecipIn,Conditions,Clouds,dailyrainin,SoftwareType,DateUTC
2013-08-19 00:03:00,67.6,59.4,29.99,WNW,284,0.0,0.0,75,0.00,,,0.00,meteohub,2013-08-19 05:03:00,
2013-08-19 00:08:00,67.6,59.4,29.99,WNW,284,0.0,1.0,75,0.00,,,0.00,meteohub,2013-08-19 05:08:00,
2013-08-19 00:14:00,67.6,59.4,29.99,WNW,283,0.0,1.0,75,0.00,,,0.00,meteohub,2013-08-19 05:14:00,
2013-08-19 00:19:00,67.6,59.4,29.99,West,269,0.0,1.0,75,0.00,,,0.00,meteohub,2013-08-19 05:19:00,
2013-08-19 00:24:00,67.8,59.5,29.99,West,269,0.0,1.0,75,0.00,,,0.00,meteohub,2013-08-19 05:24:00,
2013-08-19 00:29:00,67.8,59.5,29.99,West,269,0.0,1.0,75,0.00,,,0.00,meteohub,2013-08-19 05:29:00,
2013-08-19 00:34:00,67.8,59.5,29.99,West,269,0.0,1.0,75,0.00,,,0.00,meteohub,2013-08-19 05:34:00,
2013-08-19 00:39:00,67.8,59.5,29.99,West,269,0.0,0.0,75,0.00,,,0.00,meteohub,2013-08-19 05:39:00,
2013-08-19 00:44:00,67.8,59.5,29.99,West,268,0.0,0.0,75,0.00,,,0.00,meteohub,2013-08-19 05:44:00,
2013-08-19 00:49:00,67.8,59.5,29.98,West,269,0.0,0.0,75,0.00,,,0.00,meteohub,2013-08-19 05:49:00,
2013-08-19 00:54:00,67.8,59.5,29.98,West,268,0.0,0.0,75,0.00,,,0.00,meteohub,2013-08-19 05:54:00,
2013-08-19 00:59:00,67.6,59.4,29.98,West,268,0.0,1.0,75,0.00,,,0.00,meteohub,2013-08-19 05:59:00,
2013-08-19 01:04:00,67.6,59.4,29.98,West,269,0.0,1.0,75,0.00,,,0.00,meteohub,2013-08-19 06:04:00,
2013-08-19 01:09:00,67.6,59.4,29.98,West,269,0.0,1.0,75,0.00,,,0.00,meteohub,2013-08-19 06:09:00,
2013-08-19 01:14:00,67.6,59.4,29.98,West,268,0.0,1.0,75,0.00,,,0.00,meteohub,2013-08-19 06:14:00,
2013-08-19 01:19:00,67.6,59.0,29.98,West,269,0.0,0.0,74,0.00,,,0.00,meteohub,2013-08-19 06:19:00,
2013-08-19 01:24:00,67.6,59.0,29.99,West,268,0.0,0.0,74,0.00,,,0.00,meteohub,2013-08-19 06:24:00,
2013-08-19 01:30:00,67.6,59.0,29.98,West,269,0.0,0.0,74,0.00,,,0.00,meteohub,2013-08-19 06:30:00,
2013-08-19 01:35:00,67.5,59.2,29.99,West,269,0.0,0.0,75,0.00,,,0.00,meteohub,2013-08-19 06:35:00,
2013-08-19 01:40:00,67.5,59.2,29.99,WNW,288,0.0,1.0,75,0.00,,,0.00,meteohub,2013-08-19 06:40:00,
2013-08-19 01:45:00,67.5,59.2,29.99,WNW,288,0.0,3.0,75,0.00,,,0.00,meteohub,2013-08-19 06:45:00,
2013-08-19 01:50:00,67.5,59.2,29.99,WNW,289,0.0,3.0,75,0.00,,,0.00,meteohub,2013-08-19 06:50:00,
2013-08-19 01:55:00,67.5,59.2,29.99,WNW,288,0.0,1.0,75,0.00,,,0.00,meteohub,2013-08-19 06:55:00,
2013-08-19 02:00:00,67.5,59.2,29.98,WNW,288,0.0,1.0,75,0.00,,,0.00,meteohub,2013-08-19 07:00:00,
2013-08-19 02:05:00,67.5,59.2,29.98,WNW,289,0.0,1.0,75,0.00,,,0.00,meteohub,2013-08-19 07:05:00,
2013-08-19 02:10:00,67.5,59.2,29.98,WNW,288,0.0,1.0,75,0.00,,,0.00,meteohub,2013-08-19 07:10:00,
2013-08-19 02:15:00,67.5,59.2,29.97,WNW,288,0.0,1.0,75,0.00,,,0.00,meteohub,2013-08-19 07:15:00,
2013-08-19 02:20:00,67.5,59.5,29.97,WNW,288,0.0,1.0,76,0.00,,,0.00,meteohub,2013-08-19 07:20:00,
2013-08-19 02:25:00,67.5,59.5,29.97,WNW,288,0.0,1.0,76,0.00,,,0.00,meteohub,2013-08-19 07:25:00,
2013-08-19 02:30:00,67.3,59.5,29.96,WNW,288,0.0,0.0,76,0.00,,,0.00,meteohub,2013-08-19 07:30:00,
2013-08-19 02:35:00,67.3,59.5,29.96,WNW,288,0.0,0.0,76,0.00,,,0.00,meteohub,2013-08-19 07:35:00,
2013-08-19 02:40:00,67.1,59.4,29.96,WNW,288,0.0,0.0,76,0.00,,,0.00,meteohub,2013-08-19 07:40:00,
2013-08-19 02:45:00,66.9,59.2,29.96,WNW,288,0.0,0.0,76,0.00,,,0.00,meteohub,2013-08-19 07:45:00,
2013-08-19 02:51:00,66.7,59.0,29.96,WNW,288,0.0,0.0,76,0.00,,,0.00,meteohub,2013-08-19 07:51:00,
2013-08-19 02:56:00,66.7,59.0,29.96,WNW,288,0.0,0.0,76,0.00,,,0.00,meteohub,2013-08-19 07:56:00,
2013-08-19 03:01:00,66.6,59.2,29.96,WNW,288,0.0,1.0,77,0.00,,,0.00,meteohub,2013-08-19 08:01:00,
2013-08-19 03:06:00,66.6,59.2,29.96,WNW,288,0.0,1.0,77,0.00,,,0.00,meteohub,2013-08-19 08:06:00,
2013-08-19 03:11:00,66.6,59.2,29.96,WNW,288,0.0,1.0,77,0.00,,,0.00,meteohub,2013-08-19 08:11:00,
2013-08-19 03:16:00,66.4,59.0,29.96,WNW,288,0.0,0.0,77,0.00,,,0.00,meteohub,2013-08-19 08:16:00,
2013-08-19 03:21:00,66.4,59.0,29.96,WNW,288,0.0,0.0,77,0.00,,,0.00,meteohub,2013-08-19 08:21:00,
2013-08-19 03:26:00,66.4,59.0,29.96,WNW,288,0.0,0.0,77,0.00,,,0.00,meteohub,2013-08-19 08:26:00,
2013-08-19 03:31:00,66.4,59.0,29.96,West,281,0.0,0.0,77,0.00,,,0.00,meteohub,2013-08-19 08:31:00,
2013-08-19 03:36:00,66.4,59.0,29.96,West,281,0.0,3.0,77,0.00,,,0.00,meteohub,2013-08-19 08:36:00,
2013-08-19 03:41:00,66.6,59.5,29.96,West,277,0.0,3.0,78,0.00,,,0.00,meteohub,2013-08-19 08:41:00,
2013-08-19 03:46:00,66.6,59.5,29.96,West,277,0.0,1.0,78,0.00,,,0.00,meteohub,2013-08-19 08:46:00,
2013-08-19 03:51:00,66.7,59.7,29.96,West,277,0.0,1.0,78,0.00,,,0.00,meteohub,2013-08-19 08:51:00,
2013-08-19 03:56:00,66.7,59.7,29.96,West,276,1.0,1.0,78,0.00,,,0.00,meteohub,2013-08-19 08:56:00,
2013-08-19 04:01:00,66.9,59.9,29.96,West,276,0.0,1.0,78,0.00,,,0.00,meteohub,2013-08-19 09:01:00,
2013-08-19 04:06:00,66.9,59.9,29.96,West,276,0.0,1.0,78,0.00,,,0.00,meteohub,2013-08-19 09:06:00,
2013-08-19 04:12:00,66.9,59.9,29.96,West,275,0.0,1.0,78,0.00,,,0.00,meteohub,2013-08-19 09:12:00,
2013-08-19 04:17:00,67.3,60.3,29.96,West,276,0.0,1.0,78,0.00,,,0.00,meteohub,2013-08-19 09:17:00,
2013-08-19 04:22:00,67.3,60.3,29.96,West,263,0.0,3.0,78,0.00,,,0.00,meteohub,2013-08-19 09:22:00,
2013-08-19 04:27:00,67.5,60.1,29.96,West,263,0.0,3.0,77,0.00,,,0.00,meteohub,2013-08-19 09:27:00,
2013-08-19 04:32:00,67.5,60.4,29.96,West,263,0.0,3.0,78,0.00,,,0.00,meteohub,2013-08-19 09:32:00,
2013-08-19 04:37:00,67.6,60.6,29.95,West,263,0.0,0.0,78,0.00,,,0.00,meteohub,2013-08-19 09:37:00,
2013-08-19 04:42:00,67.6,60.3,29.95,West,263,0.0,0.0,77,0.00,,,0.00,meteohub,2013-08-19 09:42:00,
2013-08-19 04:47:00,67.6,60.3,29.95,West,263,0.0,0.0,77,0.00,,,0.00,meteohub,2013-08-19 09:47:00,
2013-08-19 04:52:00,67.8,60.3,29.95,West,263,0.0,1.0,77,0.00,,,0.00,meteohub,2013-08-19 09:52:00,
2013-08-19 04:57:00,67.8,60.3,29.95,West,263,0.0,1.0,77,0.00,,,0.00,meteohub,2013-08-19 09:57:00,
2013-08-19 05:02:00,67.8,60.3,29.95,West,263,0.0,1.0,77,0.00,,,0.00,meteohub,2013-08-19 10:02:00,
2013-08-19 05:07:00,67.8,60.3,29.95,West,263,0.0,0.0,77,0.00,,,0.00,meteohub,2013-08-19 10:07:00,
2013-08-19 05:12:00,67.6,60.3,29.94,West,263,0.0,0.0,77,0.00,,,0.00,meteohub,2013-08-19 10:12:00,
2013-08-19 05:17:00,67.6,60.3,29.94,West,263,0.0,0.0,77,0.00,,,0.00,meteohub,2013-08-19 10:17:00,
2013-08-19 05:22:00,67.6,60.3,29.94,West,263,0.0,0.0,77,0.00,,,0.00,meteohub,2013-08-19 10:22:00,
2013-08-19 05:27:00,67.5,60.1,29.94,West,263,0.0,0.0,77,0.00,,,0.00,meteohub,2013-08-19 10:27:00,
2013-08-19 05:32:00,67.5,60.1,29.94,West,263,0.0,0.0,77,0.00,,,0.00,meteohub,2013-08-19 10:32:00,
2013-08-19 05:37:00,67.3,60.3,29.94,West,263,0.0,2.0,78,0.00,,,0.00,meteohub,2013-08-19 10:37:00,
2013-08-19 05:42:00,67.3,60.3,29.94,West,263,0.0,2.0,78,0.00,,,0.00,meteohub,2013-08-19 10:42:00,
2013-08-19 05:47:00,67.3,60.3,29.94,West,263,0.0,0.0,78,0.00,,,0.00,meteohub,2013-08-19 10:47:00,
2013-08-19 05:52:00,67.1,60.1,29.94,West,263,0.0,0.0,78,0.00,,,0.00,meteohub,2013-08-19 10:52:00,
2013-08-19 05:57:00,67.1,60.1,29.94,West,263,0.0,0.0,78,0.00,,,0.00,meteohub,2013-08-19 10:57:00,
2013-08-19 06:02:00,66.9,59.9,29.94,West,263,0.0,1.0,78,0.00,,,0.00,meteohub,2013-08-19 11:02:00,
2013-08-19 06:07:00,66.9,60.3,29.94,West,263,0.0,1.0,79,0.00,,,0.00,meteohub,2013-08-19 11:07:00,
2013-08-19 06:12:00,66.9,60.3,29.94,West,263,0.0,1.0,79,0.00,,,0.00,meteohub,2013-08-19 11:12:00,
2013-08-19 06:17:00,66.9,60.3,29.94,West,263,0.0,1.0,79,0.00,,,0.00,meteohub,2013-08-19 11:17:00,
2013-08-19 06:22:00,66.9,60.3,29.94,West,263,0.0,1.0,79,0.00,,,0.00,meteohub,2013-08-19 11:22:00,
2013-08-19 06:27:00,66.9,60.3,29.94,West,263,0.0,0.0,79,0.00,,,0.00,meteohub,2013-08-19 11:27:00,
2013-08-19 06:32:00,66.9,60.3,29.94,West,263,0.0,0.0,79,0.00,,,0.00,meteohub,2013-08-19 11:32:00,
2013-08-19 06:37:00,66.9,60.3,29.94,West,264,0.0,0.0,79,0.00,,,0.00,meteohub,2013-08-19 11:37:00,
2013-08-19 06:42:00,66.9,60.3,29.94,WNW,290,0.0,1.0,79,0.00,,,0.00,meteohub,2013-08-19 11:42:00,
2013-08-19 06:47:00,66.9,60.3,29.94,WNW,291,0.0,1.0,79,0.00,,,0.00,meteohub,2013-08-19 11:47:00,
2013-08-19 06:52:00,66.9,60.3,29.94,WNW,291,0.0,1.0,79,0.00,,,0.00,meteohub,2013-08-19 11:52:00,
2013-08-19 06:57:00,66.9,60.3,29.94,WNW,291,0.0,1.0,79,0.00,,,0.00,meteohub,2013-08-19 11:57:00,
2013-08-19 07:02:00,67.1,60.8,29.94,WNW,291,0.0,1.0,80,0.00,,,0.00,meteohub,2013-08-19 12:02:00,
2013-08-19 07:07:00,67.1,60.8,29.95,WNW,291,0.0,1.0,80,0.00,,,0.00,meteohub,2013-08-19 12:07:00,
2013-08-19 07:12:00,67.3,61.0,29.94,WNW,284,0.0,1.0,80,0.00,,,0.00,meteohub,2013-08-19 12:12:00,
2013-08-19 07:17:00,67.3,61.0,29.94,West,274,0.0,1.0,80,0.00,,,0.00,meteohub,2013-08-19 12:17:00,
2013-08-19 07:22:00,67.3,61.0,29.94,West,269,0.0,2.0,80,0.00,,,0.00,meteohub,2013-08-19 12:22:00,
2013-08-19 07:27:00,67.5,61.2,29.94,West,269,0.0,2.0,80,0.00,,,0.00,meteohub,2013-08-19 12:27:00,
2013-08-19 07:32:00,67.5,61.2,29.94,WNW,290,0.0,3.0,80,0.00,,,0.00,meteohub,2013-08-19 12:32:00,
2013-08-19 07:37:00,67.5,61.2,29.94,WNW,290,0.0,3.0,80,0.00,,,0.00,meteohub,2013-08-19 12:37:00,
2013-08-19 07:42:00,67.5,61.2,29.94,WNW,290,0.0,3.0,80,0.00,,,0.00,meteohub,2013-08-19 12:42:00,
2013-08-19 07:47:00,67.6,61.2,29.94,WNW,290,0.0,0.0,80,0.00,,,0.00,meteohub,2013-08-19 12:47:00,
2013-08-19 07:52:00,67.6,61.2,29.94,WNW,290,0.0,0.0,80,0.00,,,0.00,meteohub,2013-08-19 12:52:00,
2013-08-19 07:57:00,67.6,61.2,29.93,WNW,290,0.0,0.0,80,0.00,,,0.00,meteohub,2013-08-19 12:57:00,
2013-08-19 08:02:00,67.6,61.5,29.93,WNW,293,1.0,2.0,81,0.00,,,0.00,meteohub,2013-08-19 13:02:00,
2013-08-19 08:07:00,67.8,61.7,29.93,WNW,302,0.0,5.0,81,0.00,,,0.00,meteohub,2013-08-19 13:07:00,
2013-08-19 08:12:00,67.8,61.7,29.94,West,277,0.0,5.0,81,0.00,,,0.00,meteohub,2013-08-19 13:12:00,
2013-08-19 08:17:00,68.0,61.9,29.94,West,277,0.0,5.0,81,0.00,,,0.00,meteohub,2013-08-19 13:17:00,
2013-08-19 08:22:00,68.2,61.7,29.94,WNW,292,0.0,3.0,80,0.00,,,0.00,meteohub,2013-08-19 13:22:00,
2013-08-19 08:27:00,68.4,61.9,29.94,WNW,292,0.0,3.0,80,0.00,,,0.00,meteohub,2013-08-19 13:27:00,
2013-08-19 08:32:00,68.5,62.1,29.94,West,269,0.0,2.0,80,0.00,,,0.00,meteohub,2013-08-19 13:32:00,
2013-08-19 08:37:00,68.7,62.2,29.94,WNW,282,0.0,4.0,80,0.00,,,0.00,meteohub,2013-08-19 13:37:00,
2013-08-19 08:42:00,69.1,62.6,29.94,WNW,282,0.0,4.0,80,0.00,,,0.00,meteohub,2013-08-19 13:42:00,
2013-08-19 08:47:00,69.3,62.4,29.94,West,276,0.0,4.0,79,0.00,,,0.00,meteohub,2013-08-19 13:47:00,
2013-08-19 08:52:00,69.6,62.8,29.94,West,263,0.0,3.0,79,0.00,,,0.00,meteohub,2013-08-19 13:52:00,
2013-08-19 08:57:00,69.8,63.0,29.94,WNW,288,0.0,4.0,79,0.00,,,0.00,meteohub,2013-08-19 13:57:00,
2013-08-19 09:02:00,70.0,62.8,29.94,West,280,0.0,4.0,78,0.00,,,0.00,meteohub,2013-08-19 14:02:00,
2013-08-19 09:07:00,70.2,63.0,29.94,West,281,0.0,4.0,78,0.00,,,0.00,meteohub,2013-08-19 14:07:00,
2013-08-19 09:12:00,70.2,63.0,29.94,West,281,0.0,2.0,78,0.00,,,0.00,meteohub,2013-08-19 14:12:00,
2013-08-19 09:17:00,70.3,63.1,29.94,WSW,251,0.0,1.0,78,0.00,,,0.00,meteohub,2013-08-19 14:17:00,
2013-08-19 09:22:00,70.3,63.1,29.94,WSW,244,0.0,3.0,78,0.00,,,0.00,meteohub,2013-08-19 14:22:00,
2013-08-19 09:27:00,70.3,62.8,29.94,West,273,0.0,3.0,77,0.00,,,0.00,meteohub,2013-08-19 14:27:00,
2013-08-19 09:32:00,70.5,63.0,29.94,West,273,0.0,3.0,77,0.00,,,0.00,meteohub,2013-08-19 14:32:00,
2013-08-19 09:37:00,70.5,63.0,29.94,West,273,0.0,3.0,77,0.00,,,0.00,meteohub,2013-08-19 14:37:00,
2013-08-19 09:42:00,70.5,63.3,29.94,West,273,0.0,3.0,78,0.00,,,0.00,meteohub,2013-08-19 14:42:00,
2013-08-19 09:47:00,70.7,63.5,29.94,West,273,0.0,1.0,78,0.00,,,0.00,meteohub,2013-08-19 14:47:00,
2013-08-19 09:52:00,70.9,63.7,29.94,West,273,0.0,1.0,78,0.00,,,0.00,meteohub,2013-08-19 14:52:00,
2013-08-19 09:57:00,70.9,63.7,29.94,West,259,0.0,2.0,78,0.00,,,0.00,meteohub,2013-08-19 14:57:00,
2013-08-19 10:02:00,70.9,63.7,29.94,West,280,0.0,5.0,78,0.00,,,0.00,meteohub,2013-08-19 15:02:00,
2013-08-19 10:07:00,71.1,63.5,29.94,West,278,0.0,5.0,77,0.00,,,0.00,meteohub,2013-08-19 15:07:00,
2013-08-19 10:12:00,71.2,63.7,29.94,West,264,0.0,4.0,77,0.00,,,0.00,meteohub,2013-08-19 15:12:00,
2013-08-19 10:18:00,71.2,63.7,29.94,WNW,286,0.0,4.0,77,0.00,,,0.00,meteohub,2013-08-19 15:18:00,
2013-08-19 10:23:00,71.2,63.7,29.94,WNW,286,0.0,4.0,77,0.00,,,0.00,meteohub,2013-08-19 15:23:00,
2013-08-19 10:28:00,71.4,63.9,29.94,WNW,286,0.0,2.0,77,0.00,,,0.00,meteohub,2013-08-19 15:28:00,
2013-08-19 10:33:00,71.4,63.9,29.94,WNW,286,0.0,1.0,77,0.00,,,0.00,meteohub,2013-08-19 15:33:00,
2013-08-19 10:38:00,71.8,64.2,29.94,WNW,286,0.0,2.0,77,0.00,,,0.00,meteohub,2013-08-19 15:38:00,
2013-08-19 10:43:00,72.0,64.8,29.94,WNW,286,0.0,2.0,78,0.00,,,0.00,meteohub,2013-08-19 15:43:00,
2013-08-19 10:48:00,72.0,64.8,29.94,WNW,292,0.0,1.0,78,0.00,,,0.00,meteohub,2013-08-19 15:48:00,
2013-08-19 10:53:00,72.1,64.6,29.94,WNW,292,0.0,4.0,77,0.00,,,0.00,meteohub,2013-08-19 15:53:00,
2013-08-19 10:59:00,72.3,64.8,29.94,WNW,292,0.0,4.0,77,0.00,,,0.00,meteohub,2013-08-19 15:59:00,
2013-08-19 11:04:00,72.7,65.1,29.94,WNW,290,1.0,4.0,77,0.00,,,0.00,meteohub,2013-08-19 16:04:00,
2013-08-19 11:09:00,72.9,65.3,29.94,West,277,0.0,4.0,77,0.00,,,0.00,meteohub,2013-08-19 16:09:00,
2013-08-19 11:14:00,73.0,64.9,29.94,West,277,0.0,4.0,76,0.00,,,0.00,meteohub,2013-08-19 16:14:00,
2013-08-19 11:19:00,73.0,64.9,29.94,West,277,0.0,3.0,76,0.00,,,0.00,meteohub,2013-08-19 16:19:00,
2013-08-19 11:25:00,73.2,65.1,29.94,West,277,0.0,3.0,76,0.00,,,0.00,meteohub,2013-08-19 16:25:00,
2013-08-19 11:30:00,73.2,65.1,29.94,West,277,0.0,1.0,76,0.00,,,0.00,meteohub,2013-08-19 16:30:00,
2013-08-19 11:35:00,73.4,65.3,29.94,West,277,0.0,0.0,76,0.00,,,0.00,meteohub,2013-08-19 16:35:00,
2013-08-19 11:40:00,73.4,65.3,29.94,West,277,0.0,0.0,76,0.00,,,0.00,meteohub,2013-08-19 16:40:00,
2013-08-19 11:45:00,73.6,65.8,29.94,West,278,0.0,0.0,77,0.00,,,0.00,meteohub,2013-08-19 16:45:00,
2013-08-19 11:51:00,73.6,65.8,29.94,West,277,0.0,0.0,77,0.00,,,0.00,meteohub,2013-08-19 16:51:00,
2013-08-19 11:56:00,73.8,66.0,29.94,West,278,0.0,0.0,77,0.00,,,0.00,meteohub,2013-08-19 16:56:00,
2013-08-19 12:01:00,73.8,66.0,29.94,West,278,0.0,0.0,77,0.00,,,0.00,meteohub,2013-08-19 17:01:00,
2013-08-19 12:07:00,73.9,66.2,29.94,West,278,1.0,0.0,77,0.00,,,0.00,meteohub,2013-08-19 17:07:00,
2013-08-19 12:12:00,74.1,66.4,29.94,West,277,0.0,1.0,77,0.00,,,0.00,meteohub,2013-08-19 17:12:00,
2013-08-19 12:17:00,74.3,66.6,29.94,West,279,0.0,1.0,77,0.00,,,0.00,meteohub,2013-08-19 17:17:00,
2013-08-19 12:22:00,74.7,66.9,29.94,West,279,0.0,1.0,77,0.00,,,0.00,meteohub,2013-08-19 17:22:00,
2013-08-19 12:27:00,75.0,67.3,29.94,West,279,0.0,1.0,77,0.00,,,0.00,meteohub,2013-08-19 17:27:00,
2013-08-19 12:32:00,75.6,67.8,29.94,NW,304,0.0,1.0,77,0.00,,,0.00,meteohub,2013-08-19 17:32:00,
2013-08-19 12:37:00,75.9,67.8,29.93,West,279,0.0,6.0,76,0.00,,,0.00,meteohub,2013-08-19 17:37:00,
2013-08-19 12:42:00,76.5,68.4,29.93,West,278,5.0,6.0,76,0.00,,,0.00,meteohub,2013-08-19 17:42:00,
2013-08-19 12:47:00,76.8,67.8,29.93,West,263,1.0,5.0,74,0.00,,,0.00,meteohub,2013-08-19 17:47:00,
2013-08-19 12:52:00,77.5,68.2,29.93,West,269,0.0,5.0,73,0.00,,,0.00,meteohub,2013-08-19 17:52:00,
2013-08-19 12:57:00,77.9,68.2,29.92,West,269,0.0,5.0,72,0.00,,,0.00,meteohub,2013-08-19 17:57:00,
2013-08-19 13:02:00,78.6,68.4,29.92,WNW,299,1.0,5.0,71,0.00,,,0.00,meteohub,2013-08-19 18:02:00,
2013-08-19 13:08:00,79.3,68.7,29.92,NW,305,0.0,5.0,70,0.00,,,0.00,meteohub,2013-08-19 18:08:00,
2013-08-19 13:13:00,79.9,68.7,29.92,WNW,294,0.0,3.0,69,0.00,,,0.00,meteohub,2013-08-19 18:13:00,
2013-08-19 13:18:00,80.4,69.3,29.92,West,279,0.0,5.0,69,0.00,,,0.00,meteohub,2013-08-19 18:18:00,
2013-08-19 13:23:00,81.1,69.6,29.91,West,265,0.0,5.0,68,0.00,,,0.00,meteohub,2013-08-19 18:23:00,
2013-08-19 13:28:00,81.7,68.7,29.91,WNW,294,0.0,2.0,65,0.00,,,0.00,meteohub,2013-08-19 18:28:00,
2013-08-19 13:33:00,82.2,69.8,29.91,WNW,294,0.0,4.0,66,0.00,,,0.00,meteohub,2013-08-19 18:33:00,
2013-08-19 13:38:00,82.9,70.0,29.91,WNW,291,0.0,4.0,65,0.00,,,0.00,meteohub,2013-08-19 18:38:00,
2013-08-19 13:43:00,83.5,70.5,29.91,WNW,290,0.0,2.0,65,0.00,,,0.00,meteohub,2013-08-19 18:43:00,
2013-08-19 13:48:00,84.0,70.0,29.91,West,273,0.0,2.0,63,0.00,,,0.00,meteohub,2013-08-19 18:48:00,
2013-08-19 13:53:00,84.6,70.5,29.91,WNW,303,0.0,4.0,63,0.00,,,0.00,meteohub,2013-08-19 18:53:00,
2013-08-19 13:59:00,84.7,70.3,29.90,WNW,301,0.0,4.0,62,0.00,,,0.00,meteohub,2013-08-19 18:59:00,
2013-08-19 14:04:00,85.1,70.5,29.90,WNW,296,0.0,4.0,62,0.00,,,0.00,meteohub,2013-08-19 19:04:00,
2013-08-19 14:09:00,85.5,70.5,29.90,WSW,256,1.0,3.0,61,0.00,,,0.00,meteohub,2013-08-19 19:09:00,
2013-08-19 14:14:00,85.8,70.9,29.90,WNW,300,0.0,2.0,61,0.00,,,0.00,meteohub,2013-08-19 19:14:00,
2013-08-19 14:19:00,86.2,71.1,29.90,WNW,302,0.0,2.0,61,0.00,,,0.00,meteohub,2013-08-19 19:19:00,
2013-08-19 14:24:00,86.4,70.9,29.90,WNW,294,0.0,6.0,60,0.00,,,0.00,meteohub,2013-08-19 19:24:00,
2013-08-19 14:29:00,86.5,71.1,29.89,WNW,299,0.0,6.0,60,0.00,,,0.00,meteohub,2013-08-19 19:29:00,
2013-08-19 14:34:00,87.1,72.0,29.89,West,261,1.0,6.0,61,0.00,,,0.00,meteohub,2013-08-19 19:34:00,
2013-08-19 14:39:00,87.4,71.8,29.89,WNW,286,0.0,5.0,60,0.00,,,0.00,meteohub,2013-08-19 19:39:00,
2013-08-19 14:44:00,87.6,71.1,29.89,NW,315,0.0,5.0,58,0.00,,,0.00,meteohub,2013-08-19 19:44:00,
2013-08-19 14:49:00,87.6,70.5,29.89,NW,319,0.0,5.0,57,0.00,,,0.00,meteohub,2013-08-19 19:49:00,
2013-08-19 14:55:00,88.0,70.3,29.89,West,260,0.0,5.0,56,0.00,,,0.00,meteohub,2013-08-19 19:55:00,
2013-08-19 15:00:00,88.0,70.9,29.89,WNW,292,0.0,10.0,57,0.00,,,0.00,meteohub,2013-08-19 20:00:00,
2013-08-19 15:05:00,88.2,71.1,29.89,NW,306,0.0,7.0,57,0.00,,,0.00,meteohub,2013-08-19 20:05:00,
2013-08-19 15:10:00,88.3,70.7,29.89,West,265,4.0,7.0,56,0.00,,,0.00,meteohub,2013-08-19 20:10:00,
2013-08-19 15:15:00,88.5,71.4,29.89,West,260,0.0,7.0,57,0.00,,,0.00,meteohub,2013-08-19 20:15:00,
2013-08-19 15:20:00,88.5,71.8,29.88,West,275,1.0,7.0,58,0.00,,,0.00,meteohub,2013-08-19 20:20:00,
2013-08-19 15:25:00,88.9,71.1,29.88,WNW,294,1.0,7.0,56,0.00,,,0.00,meteohub,2013-08-19 20:25:00,
2013-08-19 15:31:00,88.9,70.7,29.88,WNW,293,0.0,5.0,55,0.00,,,0.00,meteohub,2013-08-19 20:31:00,
2013-08-19 15:36:00,89.1,71.2,29.88,West,270,1.0,5.0,56,0.00,,,0.00,meteohub,2013-08-19 20:36:00,
2013-08-19 15:41:00,89.1,70.7,29.88,NW,311,4.0,5.0,55,0.00,,,0.00,meteohub,2013-08-19 20:41:00,
2013-08-19 15:46:00,89.1,70.2,29.88,SW,214,1.0,4.0,54,0.00,,,0.00,meteohub,2013-08-19 20:46:00,
2013-08-19 15:51:00,89.1,71.2,29.88,WNW,294,0.0,6.0,56,0.00,,,0.00,meteohub,2013-08-19 20:51:00,
2013-08-19 15:56:00,89.1,70.7,29.88,WNW,292,0.0,6.0,55,0.00,,,0.00,meteohub,2013-08-19 20:56:00,
2013-08-19 16:01:00,88.9,70.7,29.88,West,269,1.0,4.0,55,0.00,,,0.00,meteohub,2013-08-19 21:01:00,
2013-08-19 16:07:00,88.9,70.2,29.87,West,276,0.0,5.0,54,0.00,,,0.00,meteohub,2013-08-19 21:07:00,
2013-08-19 16:12:00,88.5,69.8,29.87,West,280,0.0,9.0,54,0.00,,,0.00,meteohub,2013-08-19 21:12:00,
2013-08-19 16:17:00,88.5,70.3,29.87,West,269,0.0,9.0,55,0.00,,,0.00,meteohub,2013-08-19 21:17:00,
2013-08-19 16:22:00,88.5,70.3,29.87,WNW,292,1.0,9.0,55,0.00,,,0.00,meteohub,2013-08-19 21:22:00,
2013-08-19 16:27:00,88.3,70.7,29.87,WSW,247,4.0,5.0,56,0.00,,,0.00,meteohub,2013-08-19 21:27:00,
2013-08-19 16:32:00,88.2,70.0,29.87,WNW,301,2.0,9.0,55,0.00,,,0.00,meteohub,2013-08-19 21:32:00,
2013-08-19 16:37:00,88.0,69.8,29.87,West,268,0.0,9.0,55,0.00,,,0.00,meteohub,2013-08-19 21:37:00,
2013-08-19 16:42:00,87.6,69.4,29.87,North,355,0.0,9.0,55,0.00,,,0.00,meteohub,2013-08-19 21:42:00,
2013-08-19 16:47:00,87.6,69.4,29.87,West,262,1.0,12.0,55,0.00,,,0.00,meteohub,2013-08-19 21:47:00,
2013-08-19 16:52:00,87.4,69.8,29.87,West,263,0.0,12.0,56,0.00,,,0.00,meteohub,2013-08-19 21:52:00,
2013-08-19 16:58:00,87.3,69.6,29.86,West,260,0.0,7.0,56,0.00,,,0.00,meteohub,2013-08-19 21:58:00,
2013-08-19 17:03:00,87.1,70.0,29.86,NW,326,0.0,9.0,57,0.00,,,0.00,meteohub,2013-08-19 22:03:00,
2013-08-19 17:08:00,86.7,69.6,29.86,West,275,3.0,17.0,57,0.00,,,0.00,meteohub,2013-08-19 22:08:00,
2013-08-19 17:13:00,86.7,70.2,29.86,NW,308,2.0,17.0,58,0.00,,,0.00,meteohub,2013-08-19 22:13:00,
2013-08-19 17:18:00,86.5,70.0,29.86,NW,309,6.0,17.0,58,0.00,,,0.00,meteohub,2013-08-19 22:18:00,
2013-08-19 17:23:00,86.4,70.3,29.86,West,281,0.0,11.0,59,0.00,,,0.00,meteohub,2013-08-19 22:23:00,
2013-08-19 17:28:00,86.4,70.3,29.86,West,280,0.0,11.0,59,0.00,,,0.00,meteohub,2013-08-19 22:28:00,
2013-08-19 17:33:00,86.2,70.2,29.86,NW,306,0.0,11.0,59,0.00,,,0.00,meteohub,2013-08-19 22:33:00,
2013-08-19 17:38:00,85.8,70.3,29.86,NW,318,0.0,5.0,60,0.00,,,0.00,meteohub,2013-08-19 22:38:00,
2013-08-19 17:43:00,85.8,70.9,29.86,WNW,298,0.0,5.0,61,0.00,,,0.00,meteohub,2013-08-19 22:43:00,
2013-08-19 17:48:00,85.6,70.7,29.86,WNW,288,0.0,5.0,61,0.00,,,0.00,meteohub,2013-08-19 22:48:00,
2013-08-19 17:54:00,85.6,70.7,29.86,WNW,288,0.0,5.0,61,0.00,,,0.00,meteohub,2013-08-19 22:54:00,
2013-08-19 17:59:00,85.5,70.9,29.86,NW,315,0.0,5.0,62,0.00,,,0.00,meteohub,2013-08-19 22:59:00,
2013-08-19 18:04:00,85.3,70.7,29.86,WNW,296,0.0,5.0,62,0.00,,,0.00,meteohub,2013-08-19 23:04:00,
2013-08-19 18:09:00,84.9,70.5,29.86,WSW,254,0.0,2.0,62,0.00,,,0.00,meteohub,2013-08-19 23:09:00,
2013-08-19 18:14:00,84.7,70.7,29.86,WNW,303,0.0,3.0,63,0.00,,,0.00,meteohub,2013-08-19 23:14:00,
2013-08-19 18:19:00,84.6,70.5,29.86,West,259,2.0,4.0,63,0.00,,,0.00,meteohub,2013-08-19 23:19:00,
2013-08-19 18:24:00,84.2,70.2,29.86,WNW,298,0.0,7.0,63,0.00,,,0.00,meteohub,2013-08-19 23:24:00,
2013-08-19 18:29:00,84.0,70.0,29.86,WNW,295,0.0,7.0,63,0.00,,,0.00,meteohub,2013-08-19 23:29:00,
2013-08-19 18:34:00,83.8,70.0,29.86,WSW,249,0.0,7.0,63,0.00,,,0.00,meteohub,2013-08-19 23:34:00,
2013-08-19 18:39:00,83.7,70.2,29.86,WSW,250,2.0,6.0,64,0.00,,,0.00,meteohub,2013-08-19 23:39:00,
2013-08-19 18:44:00,83.7,70.2,29.86,WNW,288,0.0,6.0,64,0.00,,,0.00,meteohub,2013-08-19 23:44:00,
2013-08-19 18:49:00,83.5,70.0,29.86,WNW,288,0.0,4.0,64,0.00,,,0.00,meteohub,2013-08-19 23:49:00,
2013-08-19 18:54:00,83.3,70.3,29.86,WNW,288,0.0,4.0,65,0.00,,,0.00,meteohub,2013-08-19 23:54:00,
2013-08-19 18:59:00,83.1,70.2,29.86,West,273,1.0,4.0,65,0.00,,,0.00,meteohub,2013-08-19 23:59:00,
2013-08-19 19:05:00,82.9,70.0,29.86,West,272,0.0,4.0,65,0.00,,,0.00,meteohub,2013-08-20 00:05:00,
2013-08-19 19:10:00,82.8,70.2,29.86,West,272,0.0,2.0,66,0.00,,,0.00,meteohub,2013-08-20 00:10:00,
2013-08-19 19:15:00,82.6,70.0,29.85,WNW,303,0.0,2.0,66,0.00,,,0.00,meteohub,2013-08-20 00:15:00,
2013-08-19 19:20:00,82.4,70.0,29.86,West,271,0.0,4.0,66,0.00,,,0.00,meteohub,2013-08-20 00:20:00,
2013-08-19 19:25:00,82.2,69.8,29.86,West,271,0.0,4.0,66,0.00,,,0.00,meteohub,2013-08-20 00:25:00,
2013-08-19 19:30:00,82.0,70.0,29.86,West,271,0.0,3.0,67,0.00,,,0.00,meteohub,2013-08-20 00:30:00,
2013-08-19 19:35:00,81.9,69.8,29.85,West,271,0.0,1.0,67,0.00,,,0.00,meteohub,2013-08-20 00:35:00,
2013-08-19 19:40:00,81.9,70.3,29.86,West,271,0.0,1.0,68,0.00,,,0.00,meteohub,2013-08-20 00:40:00,
2013-08-19 19:45:00,81.7,70.2,29.86,WNW,299,0.0,1.0,68,0.00,,,0.00,meteohub,2013-08-20 00:45:00,
2013-08-19 19:50:00,81.3,69.8,29.85,WNW,299,0.0,3.0,68,0.00,,,0.00,meteohub,2013-08-20 00:50:00,
2013-08-19 19:55:00,81.1,69.6,29.86,NW,309,0.0,3.0,68,0.00,,,0.00,meteohub,2013-08-20 00:55:00,
2013-08-19 20:00:00,81.0,69.4,29.86,NW,308,0.0,2.0,68,0.00,,,0.00,meteohub,2013-08-20 01:00:00,
2013-08-19 20:05:00,80.8,69.3,29.86,NW,307,0.0,2.0,68,0.00,,,0.00,meteohub,2013-08-20 01:05:00,
2013-08-19 20:10:00,80.8,69.6,29.86,NW,307,0.0,2.0,69,0.00,,,0.00,meteohub,2013-08-20 01:10:00,
2013-08-19 20:16:00,80.4,69.3,29.86,NW,307,0.0,0.0,69,0.00,,,0.00,meteohub,2013-08-20 01:16:00,
2013-08-19 20:21:00,80.2,69.1,29.86,NW,307,1.0,0.0,69,0.00,,,0.00,meteohub,2013-08-20 01:21:00,
2013-08-19 20:26:00,80.2,69.1,29.86,NW,307,0.0,1.0,69,0.00,,,0.00,meteohub,2013-08-20 01:26:00,
2013-08-19 20:31:00,80.1,69.4,29.86,WNW,290,0.0,1.0,70,0.00,,,0.00,meteohub,2013-08-20 01:31:00,
2013-08-19 20:36:00,79.9,69.3,29.86,WNW,290,0.0,1.0,70,0.00,,,0.00,meteohub,2013-08-20 01:36:00,
2013-08-19 20:41:00,79.5,68.9,29.86,WNW,290,0.0,1.0,70,0.00,,,0.00,meteohub,2013-08-20 01:41:00,
2013-08-19 20:46:00,79.5,69.3,29.86,WNW,290,0.0,1.0,71,0.00,,,0.00,meteohub,2013-08-20 01:46:00,
2013-08-19 20:51:00,79.3,69.1,29.86,WNW,290,0.0,0.0,71,0.00,,,0.00,meteohub,2013-08-20 01:51:00,
2013-08-19 20:56:00,79.2,68.9,29.86,WNW,290,0.0,1.0,71,0.00,,,0.00,meteohub,2013-08-20 01:56:00,
2013-08-19 21:01:00,79.0,68.7,29.87,WNW,290,0.0,1.0,71,0.00,,,0.00,meteohub,2013-08-20 02:01:00,
2013-08-19 21:06:00,78.8,68.5,29.87,WNW,290,0.0,1.0,71,0.00,,,0.00,meteohub,2013-08-20 02:06:00,
2013-08-19 21:11:00,78.6,68.4,29.87,WNW,290,0.0,1.0,71,0.00,,,0.00,meteohub,2013-08-20 02:11:00,
2013-08-19 21:16:00,78.6,68.9,29.87,WNW,290,0.0,0.0,72,0.00,,,0.00,meteohub,2013-08-20 02:16:00,
2013-08-19 21:22:00,78.4,68.7,29.87,WNW,290,0.0,0.0,72,0.00,,,0.00,meteohub,2013-08-20 02:22:00,
2013-08-19 21:27:00,78.3,68.5,29.87,WNW,290,0.0,1.0,72,0.00,,,0.00,meteohub,2013-08-20 02:27:00,
2013-08-19 21:32:00,78.1,68.4,29.87,WNW,290,0.0,1.0,72,0.00,,,0.00,meteohub,2013-08-20 02:32:00,
2013-08-19 21:37:00,77.9,68.2,29.87,WNW,290,0.0,1.0,72,0.00,,,0.00,meteohub,2013-08-20 02:37:00,
2013-08-19 21:42:00,77.7,68.0,29.87,WNW,290,0.0,0.0,72,0.00,,,0.00,meteohub,2013-08-20 02:42:00,
2013-08-19 21:47:00,77.7,68.4,29.87,WNW,290,0.0,1.0,73,0.00,,,0.00,meteohub,2013-08-20 02:47:00,
2013-08-19 21:52:00,77.5,68.2,29.88,West,280,0.0,3.0,73,0.00,,,0.00,meteohub,2013-08-20 02:52:00,
2013-08-19 21:57:00,77.4,68.0,29.88,WNW,286,0.0,3.0,73,0.00,,,0.00,meteohub,2013-08-20 02:57:00,
2013-08-19 22:02:00,77.4,68.0,29.88,WNW,286,0.0,3.0,73,0.00,,,0.00,meteohub,2013-08-20 03:02:00,
2013-08-19 22:07:00,77.4,68.0,29.87,WNW,287,0.0,3.0,73,0.00,,,0.00,meteohub,2013-08-20 03:07:00,
2013-08-19 22:12:00,77.2,68.2,29.88,WNW,287,0.0,1.0,74,0.00,,,0.00,meteohub,2013-08-20 03:12:00,
2013-08-19 22:17:00,77.2,68.2,29.88,NW,309,0.0,1.0,74,0.00,,,0.00,meteohub,2013-08-20 03:17:00,
2013-08-19 22:22:00,77.0,68.0,29.88,NW,313,0.0,4.0,74,0.00,,,0.00,meteohub,2013-08-20 03:22:00,
2013-08-19 22:27:00,76.8,67.8,29.88,West,272,0.0,4.0,74,0.00,,,0.00,meteohub,2013-08-20 03:27:00,
2013-08-19 22:32:00,76.8,67.8,29.88,West,272,0.0,4.0,74,0.00,,,0.00,meteohub,2013-08-20 03:32:00,
2013-08-19 22:37:00,76.8,67.8,29.88,West,273,0.0,4.0,74,0.00,,,0.00,meteohub,2013-08-20 03:37:00,
2013-08-19 22:42:00,76.6,67.6,29.88,WNW,282,3.0,4.0,74,0.00,,,0.00,meteohub,2013-08-20 03:42:00,
2013-08-19 22:47:00,76.6,67.6,29.88,WNW,303,0.0,5.0,74,0.00,,,0.00,meteohub,2013-08-20 03:47:00,
2013-08-19 22:52:00,76.6,67.6,29.88,WNW,302,0.0,5.0,74,0.00,,,0.00,meteohub,2013-08-20 03:52:00,
2013-08-19 22:57:00,76.5,67.1,29.88,NW,313,0.0,5.0,73,0.00,,,0.00,meteohub,2013-08-20 03:57:00,
2013-08-19 23:01:00,76.5,67.6,29.87,NW,313,0.0,3.0,74,0.00,,,0.00,meteohub,2013-08-20 04:01:00,
2013-08-19 23:02:00,76.5,67.6,29.87,NW,313,0.0,3.0,74,0.00,,,0.00,meteohub,2013-08-20 04:02:00,
2013-08-19 23:03:00,76.5,67.6,29.87,NW,313,0.0,3.0,74,0.00,,,0.00,meteohub,2013-08-20 04:03:00,
2013-08-19 23:05:00,76.5,67.6,29.88,West,275,0.0,3.0,74,0.00,,,0.00,meteohub,2013-08-20 04:05:00,
2013-08-19 23:10:00,76.5,67.6,29.87,WNW,296,0.0,3.0,74,0.00,,,0.00,meteohub,2013-08-20 04:10:00,
2013-08-19 23:15:00,76.3,67.5,29.87,WNW,298,0.0,5.0,74,0.00,,,0.00,meteohub,2013-08-20 04:15:00,
2013-08-19 23:20:00,76.3,67.5,29.87,West,278,0.0,5.0,74,0.00,,,0.00,meteohub,2013-08-20 04:20:00,
2013-08-19 23:25:00,76.1,67.3,29.87,West,277,0.0,5.0,74,0.00,,,0.00,meteohub,2013-08-20 04:25:00,
2013-08-19 23:30:00,75.9,67.1,29.87,WNW,284,0.0,5.0,74,0.00,,,0.00,meteohub,2013-08-20 04:30:00,
2013-08-19 23:35:00,75.9,67.1,29.87,WNW,298,3.0,5.0,74,0.00,,,0.00,meteohub,2013-08-20 04:35:00,
2013-08-19 23:40:00,75.9,67.1,29.87,WNW,298,0.0,5.0,74,0.00,,,0.00,meteohub,2013-08-20 04:40:00,
2013-08-19 23:45:00,75.7,66.9,29.87,WNW,303,0.0,5.0,74,0.00,,,0.00,meteohub,2013-08-20 04:45:00,
2013-08-19 23:50:00,75.7,66.9,29.87,NW,305,0.0,3.0,74,0.00,,,0.00,meteohub,2013-08-20 04:50:00,
2013-08-19 23:55:00,75.6,66.7,29.87,WNW,303,0.0,4.0,74,0.00,,,0.00,meteohub,2013-08-20 04:55:00,